7 * 24
多渠道服务支持
STARLINK-32457是美国于北京时间2024年10月30日08时发射的星链卫星,隶属于SpaceX公司的星链星座项目。星链项目旨在构建全球卫星互联网星座,为全球用户提供低延迟、高速率的宽带互联网接入服务,该卫星入轨后将和其他星链卫星协同工作,推进星链星座全球覆盖布局,提升服务覆盖范围与网络性能。
美国
(US)
| 数据来源 | 国际轨道数据 |
| 星历时间: | 2026-09-11T19:13:48+0800 15小时前 查看轨道信息 |
| 半长轴: | 6840.926km |
| 偏心率: | 0.0000905 |
| 轨道倾角: | 53.161° |
| 近地点辐角 | 102.047° |
| 升交点赤经 | 316.036° |
| 平近点角 | 258.064° |
| 近地点: | 462.169km |
| 远地点: | 463.409km |
| 周期: | 93.850分钟 |
| 每日圈数: | 15.343712 |